SCP
0 0 0 0 0 0 0 0 0 0 0 0 0 0 0 0 0 0 0 0 0 0 0 0 0 0 0 0 0 0 0 0 0 0 0 0 0 0 0 0 0 0 0
0 0 0 0 0 0 0 0 0 0 0 0 0 0 0 0 0 0 0 0 0 0 0 0 0 0 0 0 0 0 0 0 0 0 0 0 0 0 0 0 0 0 0
0 0 0 0 0 0 0 0 0 0 0 0 0 0 0 0 0 0 0 0 0 0 0 0 0 0 0 0 0 0 0 0 0 0 0 0 0 0 0 0 0 0 0
0 0 0 0 0 0 0 0 0 0 0 0 0 0 0 0 0 0 0 0 0 0 0 0 0 0 0 0 0 0 0 0 0 0 0 0 0 0 0 0 0 0 0
0 0 0 0 0 0 0 0 0 0 0 0 0 0 0 0 0 0 0 0 0 0 0 0 0 0 0 0 0 0 0 0 0 0 0 0 0 0 0 0 0 0 0
0 0 0 0 0 0 0 0 0 0 0 0 0 0 0 0 0 0 0 0 0 0 0 0 0 0 0 0 0 0 0 0 0 0 0 0 0 0 0 0 0 0 0
0 0 0 0 0 0 0 0 0 0 0 0 0 0 0 0 0 0 0 0 0 0 0 0 0 0 0 0 0 0 0 0 0 0 0 0 0 0 0 0 0 0 0
0 0 0 0 0 0 0 0 0 0 0 0 0 0 0 0 0 0 0 0 0 0 0 0 0 0 0 0 0 0 0 0 0 0 0 0 0 0 0 0 0 0 0
0 0 0 0 0 0 0 0 0 0 0 0 0 0 0 0 0 0 0 0 0 0 0 0 0 0 0 0 0 0 0 0 0 0 0 0 0 0 0 0 0 0 0
0 0 0 0 0 0 0 0 0 0 0 0 0 0 0 0 0 0 0 0 0 0 0 0 0 0 0 0 0 0 0 0 0 0 0 0 0 0 0 0 0 0 0
0 0 0 0 0 0 0 0 0 0 0 0 0 0 0 0 0 0 0 0 0 0 0 0 0 0 0 0 0 0 0 0 0 0 0 0 0 0 0 0 0 0 0
0 0 0 0 0 0 0 0 0 0 0 0 0 0 0 0 0 0 0 0 0 0 0 0 0 0 0 0 0 0 0 0 0 0 0 0 0 0 0 0 0 0 0
0 0 0 0 0 0 0 0 0 0 0 0 0 0 0 0 0 0 0 0 0 0 0 0 0 0 0 0 0 0 0 0 0 0 0 0 0 0 0 0 0 0 0
0 0 0 0 0 0 0 0 0 0 0 0 0 0 0 0 0 0 0 0 0 0 0 0 0 0 0 0 0 0 0 0 0 0 0 0 0 0 0 0 0 0 0
0 0 0 0 0 0 0 0 0 0 0 0 0 0 0 0 0 0 0 0 0 0 0 0 0 0 0 0 0 0 0 0 0 0 0 0 0 0 0 0 0 0 0
0 0 0 0 0 0 0 0 0 0 0 0 0 0 0 0 0 0 0 0 0 0 0 0 0 0 0 0 0 0 0 0 0 0 0 0 0 0 0 0 0 0 0
0 0 0 0 0 0 0 0 0 0 0 0 0 0 0 0 0 0 0 0 0 0 -0 -0 0 0 0 0 0 0 0 0 0 0 0 0 0 0 0 0 0 0 0
0 0 0 0 0 0 0 0 0 0 0 0 0 0 0 0 0 0 0 0 0 0 0 0 0 0 0 0 0 0 0 0 0 0 0 0 0 0 0 0 0 0 0
0 0 0 0 0 0 0 0 0 0 0 0 0 0 0 0 0 0 0 0 0 0 0 0 0 0 0 0 0 0 0 0 0 0 0 0 0 0 0 0 0 0 0
0 0 0 0 0 0 0 0 0 0 0 0 0 0 0 0 0 0 0 0 0 0 0 0 0 0 0 0 0 0 0 0 0 0 0 0 0 0 0 0 0 0 0
0 0 0 0 0 0 0 0 0 0 0 0 0 0 0 0 0 0 0 0 0 0 0 0 0 0 0 0 0 0 0 0 0 0 0 0 0 0 0 0 0 0 0
0 0 0 0 0 0 0 0 0 0 0 0 0 0 0 0 0 0 0 0 0 0 0 0 0 0 0 0 0 0 0 0 0 0 0 0 0 0 0 0 0 0 0
0 0 0 0 0 0 0 0 0 0 0 0 0 0 0 0 0 0 0 0 0 0 0 0 0 0 0 0 0 0 0 0 0 0 0 0 0 0 0 0 0 0 0
0 0 0 0 0 0 0 0 0 0 0 0 0 0 0 0 0 0 0 0 0 0 0 0 0 0 0 0 0 0 0 0 0 0 0 0 0 0 0 0 0 0 0
0 0 0 0 0 0 0 0 0 0 0 0 0 0 0 0 0 0 0 0 0 0 0 0 0 0 0 0 0 0 0 0 0 0 0 0 0 0 0 0 0 0 0
0 0 0 0 0 0 0 0 0 0 0 0 0 0 0 0 0 0 0 0 0 0 0 0 0 0 0 0 0 0 0 0 0 0 0 0 0 0 0 0 0 0 0
Wind_Speed
5 6 8 7 7 6 6 6 6 4 4 3 3 3 2 2 2 3 4 5 5 5 5 4 4 5 4 4 4 3 5 4 2 4 4 5 5 5 4 4 4 5 5
6 6 7 6 7 7 6 6 6 5 4 3 3 3 2 1 1 2 4 4 5 5 4 4 4 4 4 6 6 4 3 4 4 3 3 4 5 5 6 4 4 5 4
10 8 8 6 6 7 7 7 6 5 4 4 4 3 3 3 3 3 3 3 4 5 4 4 4 4 4 4 4 4 4 3 4 3 3 3 1 2 4 5 5 5 4
9 9 9 8 8 7 6 7 6 6 5 5 5 5 3 2 1 1 1 3 4 4 4 4 4 4 4 4 4 4 3 4 3 3 3 3 3 3 2 4 4 5 5
11 10 10 9 8 7 7 6 6 5 5 5 6 6 4 2 1 2 3 3 4 4 4 4 4 4 4 4 5 5 5 4 3 2 2 3 3 3 3 2 3 4 4
10 10 8 8 7 7 6 6 7 5 4 5 5 6 6 4 4 3 2 2 2 3 4 4 4 4 3 4 4 4 5 4 5 4 4 3 2 2 2 2 1 2 2
11 10 10 9 8 8 8 7 7 5 5 5 5 5 6 5 5 4 3 2 1 1 2 3 3 3 3 4 4 5 5 5 5 4 3 3 2 1 2 2 1 2 2
11 12 12 10 10 9 9 8 8 6 6 6 5 4 5 4 3 3 3 3 2 1 1 3 3 3 4 4 5 4 4 4 5 5 4 4 3 2 2 2 3 2 3
12 12 11 10 10 10 9 9 9 7 6 6 5 4 4 4 4 3 3 2 2 2 2 3 3 3 4 4 4 4 4 4 4 4 4 4 3 3 2 2 2 4 2
11 11 11 11 10 9 8 8 8 8 7 6 5 5 4 4 4 4 4 3 2 2 3 3 3 4 4 4 4 4 3 5 4 3 5 4 3 3 3 3 2 3 3
13 12 11 10 9 8 8 8 8 7 6 6 5 5 4 4 4 4 4 4 3 3 3 3 4 3 4 4 4 3 4 5 4 4 5 4 3 3 3 3 4 3 3
12 11 11 10 9 9 9 9 8 8 7 6 6 6 5 5 5 4 4 4 4 4 4 4 4 4 3 3 4 4 4 5 5 4 4 4 4 4 4 4 4 3 2
9 9 9 10 10 10 9 9 8 8 7 7 7 6 6 6 5 4 4 4 5 4 4 4 4 3 3 4 4 4 4 4 4 3 4 3 4 4 3 4 4 3 3
10 10 10 10 10 10 10 9 8 8 8 7 7 7 6 6 6 5 5 5 5 5 5 4 4 4 3 4 4 4 4 4 3 3 3 3 4 3 3 3 3 3 3
10 11 11 10 10 10 9 9 8 8 8 8 8 7 6 6 5 5 5 5 5 5 5 4 4 3 3 3 4 4 5 4 4 3 3 2 4 5 3 3 2 3 3
12 12 12 11 11 12 11 10 9 9 9 9 8 7 6 6 6 6 5 5 5 4 4 4 4 3 2 4 6 5 4 4 3 3 2 2 3 5 6 6 5 4 3
12 12 13 13 13 12 12 12 11 9 9 9 8 8 8 7 6 6 6 6 5 4 4 4 4 3 2 5 7 7 5 4 3 2 1 1 2 3 3 4 5 4 4
11 12 11 11 10 10 9 9 9 10 10 8 8 8 8 8 6 6 6 5 4 4 4 3 4 3 2 5 7 8 5 3 2 2 2 2 1 1 2 2 3 2 2
11 11 11 11 10 11 11 11 10 9 9 10 10 9 9 9 8 7 6 4 4 4 3 4 4 4 2 4 6 7 3 3 1 0 1 2 2 2 3 3 1 2 3
7 7 7 8 9 10 11 12 11 10 11 11 10 9 9 10 9 8 6 4 4 4 4 3 4 4 3 4 6 7 3 2 1 0 0 2 2 2 2 2 2 1 3
6 7 8 9 10 10 12 12 11 13 11 9 9 8 9 9 8 7 5 5 5 5 4 3 2 3 4 5 6 7 3 3 2 2 1 2 2 1 1 2 2 3 3
5 6 7 7 7 10 12 11 12 11 9 9 9 9 8 8 7 7 6 5 6 5 4 3 2 2 3 4 5 7 6 5 4 3 2 3 3 2 2 2 3 4 2
4 5 6 6 5 8 11 12 10 9 10 10 10 9 8 7 7 8 7 5 5 5 4 4 4 3 2 3 6 7 7 6 4 3 5 5 4 3 2 4 4 3 1
3 4 5 6 5 6 8 8 8 10 11 11 10 9 9 7 6 6 6 6 6 6 5 5 5 4 3 3 3 3 4 5 4 3 3 4 4 3 3 3 3 2 2
2 4 5 6 6 6 6 6 8 10 10 9 8 8 8 8 7 6 6 8 8 9 8 7 6 6 6 8 9 6 4 4 4 2 1 1 1 2 2 2 2 2 2
2 3 3 4 4 5 5 6 8 10 10 8 8 7 6 6 6 6 4 6 6 9 11 9 8 7 8 8 9 10 9 9 7 4 2 3 3 4 4 4 3 3 3
Wind_Direction
164 152 146 143 135 128 124 124 121 122 114 101 97 90 72 44 37 39 45 45 45 49 57 52 39 39 44 36 36 43 46 38 37 61 40 27 35 46 39 39 47 48 48
156 153 147 149 145 142 138 132 132 130 124 123 123 125 124 89 54 29 35 39 46 47 61 59 53 44 46 39 36 44 50 33 31 80 74 34 14 14 24 30 46 45 43
168 163 154 151 146 151 153 146 145 132 124 117 100 83 61 44 34 32 25 22 46 51 58 62 63 51 54 48 41 47 64 57 29 49 109 108 90 351 359 17 30 34 41
170 164 157 155 158 160 151 146 142 132 127 121 118 122 119 118 147 104 39 26 37 48 56 64 65 59 55 53 47 55 61 72 48 28 44 93 138 118 35 358 10 31 38
170 168 165 162 159 152 147 145 137 133 131 125 129 125 121 130 115 81 61 40 29 38 53 63 64 60 57 59 56 54 57 65 70 56 53 58 54 67 106 57 359 15 16
170 166 163 151 149 144 140 141 138 138 135 129 131 133 134 129 117 105 90 49 26 27 39 60 62 64 63 63 62 62 62 63 67 62 59 72 78 70 90 101 46 26 356
167 163 160 159 157 153 151 151 148 149 146 134 136 143 142 140 143 146 136 119 67 41 33 57 65 64 65 70 71 67 61 60 66 63 59 61 69 101 109 107 89 49 1
171 170 170 168 166 163 158 155 156 157 154 145 146 146 142 139 143 148 145 145 149 152 92 79 81 76 71 73 73 70 65 65 65 64 62 57 44 59 85 119 119 73 21
175 173 172 173 172 169 168 165 161 159 160 156 149 147 147 142 142 141 133 136 143 130 103 92 85 77 75 77 80 72 66 67 62 63 64 59 42 45 52 75 115 128 98
177 175 175 177 177 175 168 164 163 166 165 161 160 157 155 150 145 129 128 131 131 115 109 95 85 78 76 81 81 75 72 71 56 61 65 55 40 46 46 57 66 95 126
181 179 179 179 175 168 164 165 168 164 165 164 162 155 154 146 136 133 137 133 122 120 117 110 98 88 83 85 86 80 79 73 60 57 67 57 49 55 44 51 61 65 95
181 177 175 169 170 172 171 171 172 170 171 164 158 159 154 142 137 137 137 129 124 122 119 110 101 95 90 90 94 91 83 84 78 69 67 53 61 52 44 54 59 62 79
174 171 170 172 176 176 176 174 174 173 168 158 156 155 155 151 151 149 141 131 128 121 112 108 107 102 99 96 98 102 97 94 94 91 84 71 73 63 54 60 59 53 59
176 174 178 180 180 178 177 175 175 169 164 159 158 161 167 165 160 152 144 139 134 127 120 114 114 113 107 104 104 105 101 93 85 83 87 86 90 99 88 75 70 71 61
179 180 183 185 181 177 177 175 174 171 165 162 165 173 168 157 150 147 144 137 133 134 129 118 109 110 113 121 120 113 109 102 84 69 71 78 89 95 103 101 96 84 74
188 187 186 185 185 184 180 177 176 174 166 169 173 167 157 153 154 152 143 134 128 128 125 125 126 118 118 127 128 123 114 114 109 93 64 54 65 76 82 90 91 98 103
190 190 190 190 190 188 182 181 178 169 169 172 170 166 163 160 161 155 144 142 142 136 130 132 127 128 145 137 129 124 119 117 122 126 115 81 74 79 83 66 57 48 55
190 191 191 191 189 181 176 171 165 168 171 171 171 170 165 162 158 154 155 154 146 146 146 148 147 142 157 139 128 121 108 109 116 138 150 142 137 138 119 88 50 21 2
190 191 189 184 179 176 172 164 167 169 170 175 176 174 167 163 162 165 167 160 149 150 153 155 153 150 168 155 141 128 117 111 112 134 152 151 161 185 135 109 74 355 328
184 181 173 163 172 176 166 165 172 175 183 183 179 173 169 168 171 173 167 158 153 158 154 155 163 165 178 180 162 145 133 132 141 108 249 189 189 205 163 145 151 285 293
172 167 161 170 180 170 164 171 176 189 189 174 165 166 169 171 170 163 158 153 151 148 154 160 174 177 184 188 178 167 155 166 170 187 232 254 238 218 199 183 196 242 268
152 159 163 174 172 166 168 176 189 188 165 158 162 167 168 171 164 156 158 157 154 156 165 167 189 216 207 198 198 190 187 179 174 202 220 240 253 254 256 245 259 274 296
150 156 162 163 165 172 175 184 189 164 157 161 168 170 169 170 162 164 166 162 165 170 182 183 198 221 224 222 212 202 197 194 193 217 225 233 246 258 272 279 282 289 271
146 149 149 158 174 180 183 188 169 159 161 168 172 170 171 172 171 173 175 176 181 185 191 197 205 214 219 222 218 214 215 213 217 231 249 252 251 249 262 281 289 264 228
152 149 161 174 186 181 181 170 160 159 162 168 171 173 177 178 181 186 191 192 200 195 192 202 199 198 217 224 210 201 210 210 213 198 213 249 261 265 271 272 266 258 256
145 146 159 172 181 172 172 168 164 164 164 168 175 179 178 179 181 184 201 223 213 212 211 207 200 214 221 218 211 214 219 218 206 180 205 226 232 238 245 251 259 256 250